This is the latest recevied weather packets stored in our database for station/object KB1JLI. If no packets are shown the sender has not sent any weather packets the latest 10 day(s).
| Time | Temp. | Humidity | Pressure | Rain* | Wind** | Luminosity | Snow |
|---|---|---|---|---|---|---|---|
| 1777486577 | 9.44° C | 84% | 1016.3 hPa | 0 mm | - | 196 W/m² | - |
| 1777486275 | 8.89° C | 85% | 1016.4 hPa | 0 mm | - | 200 W/m² | - |
| 1777485972 | 9.44° C | 84% | 1016.3 hPa | 0 mm | - | 174 W/m² | - |
| 1777485668 | 8.89° C | 85% | 1016.3 hPa | 0 mm | - | 174 W/m² | - |
| 1777485363 | 8.89° C | 84% | 1016.5 hPa | 0 mm | - | 193 W/m² | - |
| 1777485060 | 9.44° C | 83% | 1016.4 hPa | 0 mm | - | 195 W/m² | - |
| 1777484757 | 10° C | 82% | 1016.4 hPa | 0 mm | - | 220 W/m² | - |
| 1777484453 | 9.44° C | 83% | 1016.4 hPa | 0 mm | - | 226 W/m² | - |
| 1777484150 | 9.44° C | 83% | 1016.5 hPa | 0 mm | - | 250 W/m² | - |
| 1777483846 | 10° C | 82% | 1016.5 hPa | 0 mm | - | 230 W/m² | - |
| 1777483543 | 10° C | 82% | 1016.5 hPa | 0 mm | - | 252 W/m² | - |
| 1777483237 | 10° C | 81% | 1016.5 hPa | 0 mm | - | 240 W/m² | - |
| 1777482934 | 10° C | 81% | 1016.8 hPa | 0 mm | - | 233 W/m² | - |
| 1777482629 | 10.56° C | 80% | 1016.8 hPa | 0 mm | - | 247 W/m² | - |
| 1777482322 | 10° C | 81% | 1016.6 hPa | 0 mm | - | 278 W/m² | - |
| 1777482019 | 10.56° C | 80% | 1016.6 hPa | 0 mm | - | 299 W/m² | - |
| 1777481716 | 10° C | 81% | 1016.4 hPa | 0 mm | - | 319 W/m² | - |
| 1777481414 | 10° C | 81% | 1016.7 hPa | 0 mm | - | 250 W/m² | - |
| 1777481110 | 10.56° C | 80% | 1016.6 hPa | 0 mm | - | 266 W/m² | - |
| 1777480806 | 10.56° C | 79% | 1016.4 hPa | 0 mm | - | 272 W/m² | - |
| 1777480503 | 10° C | 79% | 1016.6 hPa | 0 mm | - | 283 W/m² | - |
| 1777480199 | 11.11° C | 77% | 1016.6 hPa | 0 mm | - | 301 W/m² | - |
| 1777479896 | 10.56° C | 80% | 1016.3 hPa | 0 mm | - | 285 W/m² | - |
| 1777479593 | 10° C | 81% | 1016.4 hPa | 0 mm | - | 278 W/m² | - |
| 1777479291 | 10.56° C | 79% | 1016.2 hPa | 0 mm | - | 280 W/m² | - |
* Rain latest hour (hover to see other rain measurements)
** Current wind speed in m/s (hover to see current wind gust speed)